Stations météo

réclame
Mon MeteoGroup
Lerwick, Grande-Bretagne (3005): Température de l'air & dewpoint: 27.03.2020 02:00:00 - 02.04.2020 02:00:00 (BST)Lerwick, Grande-Bretagne (3005): Température de l'air -20cm & Température de l'air -100cm: 27.03.2020 02:00:00 - 02.04.2020 02:00:00 (BST)Lerwick, Grande-Bretagne (3005): Vitesse du vent & gusts: 27.03.2020 02:00:00 - 02.04.2020 02:00:00 (BST)Lerwick, Grande-Bretagne (3005): Direction du vent: 27.03.2020 02:00:00 - 02.04.2020 02:00:00 (BST)Lerwick, Grande-Bretagne (3005): reduced air pressure: 27.03.2020 02:00:00 - 02.04.2020 02:00:00 (BST)Lerwick, Grande-Bretagne (3005): visibility: 27.03.2020 02:00:00 - 02.04.2020 02:00:00 (BST)Lerwick, Grande-Bretagne (3005): Ensoleillement: 27.03.2020 02:00:00 - 02.04.2020 02:00:00 (BST)Lerwick, Grande-Bretagne (3005): Quantités de précipitations: 27.03.2020 02:00:00 - 02.04.2020 02:00:00 (BST)
Date & Time tt [°C] td [°C] tt -20cm [°C] tt -100cm [°C] ff [km/h] ff [knt] fx [km/h] fx [knt] dd ppp [hPa] vv [km] sd [min] rr [mm]
02.04.2020 02:00:00 - - - - - - - - - - - - -
02.04.2020 01:00:00 5,8 1,3 - - 63 34 85 46 W 997,6 13 - 0,0
02.04.2020 00:00:00 4,5 2,0 - - 61 33 80 43 W 1000,1 10 0 0,2
01.04.2020 23:00:00 6,2 -0,1 - - 52 28 76 41 W 1001,8 17 0 0,0
01.04.2020 22:00:00 6,0 0,9 - - 44 24 63 34 W 1003,1 15 0 0,0
01.04.2020 21:00:00 6,4 0,5 - - 46 25 63 34 W 1004,3 17 0 0,0
01.04.2020 20:00:00 6,0 -0,9 - - 48 26 70 38 WNW 1005,4 21 0 0,0
01.04.2020 19:00:00 6,2 -0,1 - - 50 27 74 40 WNW 1005,9 16 12 0,0
01.04.2020 18:00:00 6,2 -1,3 - - 52 28 80 43 WNW 1006,5 18 12 0,0
01.04.2020 17:00:00 6,8 -0,5 - - 48 26 70 38 WNW 1006,6 18 0 0,0
01.04.2020 16:00:00 6,9 -0,6 - - 48 26 74 40 WNW 1006,6 20 18 0,0
01.04.2020 15:00:00 6,8 -0,9 - - 48 26 72 39 WNW 1007,0 20 24 0,0
01.04.2020 14:00:00 7,4 -0,8 - - 50 27 68 37 WNW 1007,1 19 18 0,0
01.04.2020 13:00:00 7,6 0,0 - - 42 23 65 35 NW 1007,4 18 36 0,0
01.04.2020 12:00:00 7,8 1,4 - - 50 27 67 36 WNW 1007,1 19 42 0,0
01.04.2020 11:00:00 6,9 5,0 - - 46 25 68 37 WNW 1007,8 10 0 0,8
01.04.2020 10:00:00 7,5 6,1 5,7 5,9 50 27 72 39 W 1007,8 14 0 0,0
01.04.2020 09:00:00 6,9 6,2 - - 57 31 76 41 W 1008,4 7 0 0,2
01.04.2020 08:00:00 6,6 5,6 - - 57 31 76 41 W 1009,4 3,0 0 0,0
01.04.2020 07:00:00 6,9 5,2 - - 55 30 74 40 W 1010,7 8 0 0,0
01.04.2020 06:00:00 6,9 4,7 - - 52 28 67 36 W 1012,2 9 0 0,0
01.04.2020 05:00:00 6,5 4,2 - - 42 23 55 30 W 1013,6 13 0 0,0
01.04.2020 04:00:00 6,4 3,8 - - 41 22 54 29 W 1015,0 17 0 0,0
01.04.2020 03:00:00 6,3 3,5 - - 41 22 55 30 W 1016,5 18 0 0,0
01.04.2020 02:00:00 6,0 2,1 - - 34 18 - - W 1017,7 21 0 0,0
01.04.2020 01:00:00 6,3 2,9 - - 35 19 50 27 W 1018,8 15 - 0,0
01.04.2020 00:00:00 6,6 3,8 - - 34 18 52 28 WNW 1020,0 12 0 0,0
31.03.2020 23:00:00 6,6 4,5 - - 35 19 48 26 WNW 1020,8 10 0 0,0
31.03.2020 22:00:00 6,8 4,4 - - 31 17 - - NW 1021,8 10 0 0,0
31.03.2020 21:00:00 6,7 4,7 - - 28 15 - - WNW 1022,3 9 0 0,0
31.03.2020 20:00:00 6,9 4,8 - - 29 16 - - WNW 1022,8 10 0 0,0
31.03.2020 19:00:00 7,0 5,1 - - 29 16 - - NW 1023,5 9 0 0,2
31.03.2020 18:00:00 6,9 5,1 - - 28 15 - - NW 1023,7 5 0 0,0
31.03.2020 17:00:00 7,0 4,8 - - 24 13 - - NW 1024,3 11 0 0,0
31.03.2020 16:00:00 6,5 4,2 - - 29 16 52 28 WNW 1024,9 5 0 0,0
31.03.2020 15:00:00 6,3 4,7 - - 28 15 54 29 NW 1025,4 19 6 0,6
31.03.2020 14:00:00 7,8 2,2 - - 39 21 54 29 NW 1025,7 25 18 0,0
31.03.2020 13:00:00 7,6 3,0 - - 35 19 63 34 NW 1026,3 16 12 0,0
31.03.2020 12:00:00 7,2 1,7 - - 34 18 48 26 NW 1026,7 35 0 0,0
31.03.2020 11:00:00 7,3 2,9 - - 31 17 46 25 NW 1027,2 28 0 0,0
31.03.2020 10:00:00 5,7 2,8 5,5 5,9 31 17 48 26 NW 1027,9 9 0 0,0
31.03.2020 09:00:00 5,5 3,4 - - 29 16 57 31 NW 1028,1 35 0 0,2
31.03.2020 08:00:00 5,5 3,8 - - 31 17 48 26 NW 1028,4 24 0 0,0
31.03.2020 07:00:00 5,7 2,6 - - 35 19 57 31 WNW 1028,5 45 0 0,0
31.03.2020 06:00:00 5,9 3,2 - - 35 19 48 26 WNW 1028,8 20 0 0,0
31.03.2020 05:00:00 5,6 3,5 - - 31 17 50 27 NW 1029,4 30 0 0,0
31.03.2020 04:00:00 6,0 3,4 - - 35 19 52 28 WNW 1029,7 22 0 0,0
31.03.2020 03:00:00 5,6 4,1 - - 26 14 - - NW 1030,5 5 0 0,2
31.03.2020 02:00:00 5,4 3,8 - - 34 18 48 26 NW 1031,2 8 0 0,0
31.03.2020 01:00:00 6,0 3,0 - - 29 16 - - NW 1031,6 22 - 0,2
31.03.2020 00:00:00 5,6 3,8 - - 28 15 - - NW 1032,2 8 0 0,0
30.03.2020 23:00:00 5,8 2,4 - - 26 14 - - WNW 1032,7 35 0 0,0
30.03.2020 22:00:00 5,3 3,6 - - 18 10 - - W 1033,5 17 0 0,0
30.03.2020 21:00:00 5,8 3,1 - - 21 11 - - W 1033,8 18 0 0,0
30.03.2020 20:00:00 5,9 2,5 - - 16 9 - - WNW 1033,9 22 0 0,0
30.03.2020 19:00:00 6,3 3,6 - - 22 12 - - WNW 1034,2 24 6 0,0
30.03.2020 18:00:00 7,2 3,5 - - 21 11 - - WNW 1034,5 30 12 0,0
30.03.2020 17:00:00 8,5 2,6 - - 22 12 - - WNW 1034,5 30 48 0,0
30.03.2020 16:00:00 8,9 2,3 - - 15 8 - - NW 1034,9 35 18 0,0
30.03.2020 15:00:00 9,5 2,8 - - 11 6 - - NNW 1035,5 26 42 0,0
30.03.2020 14:00:00 8,3 3,3 - - 15 8 - - NNW 1036,0 18 12 0,6
30.03.2020 13:00:00 8,5 4,2 - - 13 7 - - N 1036,1 14 12 0,2
30.03.2020 12:00:00 7,8 3,0 - - 21 11 - - N 1036,1 50 0 0,0
30.03.2020 11:00:00 7,6 3,1 - - 29 16 - - N 1036,2 40 0 0,0
30.03.2020 10:00:00 7,0 3,6 5,2 5,9 31 17 - - N 1036,3 25 0 0,0
30.03.2020 09:00:00 6,4 3,8 - - 28 15 - - N 1036,2 26 0 0,0
30.03.2020 08:00:00 6,2 3,6 - - 31 17 46 25 N 1036,0 30 0 0,0
30.03.2020 07:00:00 6,1 3,7 - - 24 13 48 26 NNW 1035,8 23 0 0,0
30.03.2020 06:00:00 6,2 3,3 - - 31 17 46 25 NNW 1035,8 25 0 0,0
30.03.2020 05:00:00 6,1 3,1 - - 26 14 48 26 NNW 1035,8 27 0 0,0
30.03.2020 04:00:00 6,1 2,8 - - 31 17 50 27 NNW 1036,1 30 0 0,0
30.03.2020 03:00:00 5,3 3,3 - - 31 17 48 26 NNW 1036,5 30 0 0,0
30.03.2020 02:00:00 5,7 2,7 - - 26 14 46 25 NNW 1037,1 30 0 0,0
30.03.2020 01:00:00 5,7 2,1 - - 28 15 - - NNW 1037,6 35 - 0,0
30.03.2020 00:00:00 5,5 2,7 - - 24 13 - - N 1037,9 25 0 0,0
29.03.2020 23:00:00 5,7 3,1 - - 21 11 - - NW 1038,1 19 0 0,0
29.03.2020 22:00:00 5,8 2,7 - - 22 12 - - NW 1038,6 21 0 0,0
29.03.2020 21:00:00 5,4 2,3 - - 21 11 - - NW 1038,7 22 0 0,0
29.03.2020 20:00:00 5,5 2,8 - - 18 10 - - NNW 1038,7 21 0 0,0
29.03.2020 19:00:00 5,9 1,7 - - 21 11 - - NNW 1038,8 27 0 0,0
29.03.2020 18:00:00 6,0 1,1 - - 22 12 - - NNW 1039,1 30 0 0,0
29.03.2020 17:00:00 6,0 1,2 - - 26 14 - - NNW 1039,4 29 0 0,0
29.03.2020 16:00:00 6,0 0,4 - - 26 14 - - NNW 1039,6 30 6 0,0
29.03.2020 15:00:00 6,9 0,0 - - 28 15 - - NW 1040,0 30 18 0,0
29.03.2020 14:00:00 6,3 -0,3 - - 28 15 46 25 NNW 1040,5 35 18 0,0
29.03.2020 13:00:00 6,7 -0,5 - - 31 17 - - NW 1040,9 30 24 0,0
29.03.2020 12:00:00 6,1 0,4 - - 28 15 - - NW 1041,5 30 12 0,0
29.03.2020 11:00:00 5,8 -0,6 - - 29 16 - - WNW 1041,9 35 24 0,0
29.03.2020 10:00:00 4,2 1,8 5,2 5,7 24 13 - - WNW 1042,4 45 6 0,2
29.03.2020 09:00:00 2,6 0,2 - - 16 9 54 29 W 1043,2 45 0 0,2
29.03.2020 08:00:00 3,3 -2,6 - - 18 10 - - W 1043,9 65 0 0,0
29.03.2020 07:00:00 1,9 1,8 - - 13 7 - - WNW 1044,5 65 0 0,0
29.03.2020 06:00:00 1,0 -4,8 - - 15 8 - - WNW 1045,2 75 0 0,0
29.03.2020 05:00:00 -0,2 -6,2 - - 13 7 - - NW 1045,6 70 0 0,0
29.03.2020 04:00:00 0,5 -6,7 - - 9 5 - - NNW 1046,0 75 0 0,0
29.03.2020 03:00:00 1,1 -5,8 - - 16 9 - - N 1046,4 60 0 0,0
29.03.2020 02:00:00 1,1 -6,5 - - 21 11 - - N 1046,8 70 0 0,0
29.03.2020 01:00:00 0,9 -4,9 - - 15 8 - - N 1046,8 55 - 0,0
29.03.2020 00:00:00 1,2 -5,1 - - 21 11 - - N 1046,2 50 0 0,0
28.03.2020 23:00:00 1,2 -6,4 - - 29 16 - - N 1046,1 65 0 0,0
28.03.2020 22:00:00 1,1 -6,2 - - 26 14 - - N 1046,0 55 0 0,0
28.03.2020 21:00:00 1,2 -6,0 - - 21 11 - - N 1045,7 50 0 0,0
28.03.2020 20:00:00 1,2 -4,8 - - 28 15 - - N 1045,2 14 0 0,0
28.03.2020 19:00:00 1,4 1,4 - - 29 16 46 25 NNE 1044,5 50 0 0,0
28.03.2020 18:00:00 1,5 -5,8 - - 34 18 50 27 NNE 1044,0 50 6 0,0
28.03.2020 17:00:00 1,8 -8,3 - - 41 22 54 29 N 1043,6 70 0 0,0
28.03.2020 16:00:00 2,3 -6,0 - - 37 20 57 31 N 1043,2 45 12 0,0
28.03.2020 15:00:00 3,0 0,1 - - 42 23 61 33 NNE 1042,8 45 48 0,0
28.03.2020 14:00:00 3,0 -7,2 - - 46 25 59 32 NNE 1042,4 70 36 0,0
28.03.2020 13:00:00 3,2 -5,4 - - 41 22 63 34 N 1041,9 45 54 0,0
28.03.2020 12:00:00 3,3 -3,7 - - 42 23 65 35 NNE 1041,2 30 48 0,0
28.03.2020 11:00:00 2,0 -1,2 - - 42 23 70 38 NNE 1040,2 28 30 0,2
28.03.2020 10:00:00 2,2 -1,3 5,7 5,7 44 24 61 33 NNE 1039,1 55 54 0,0
28.03.2020 09:00:00 2,6 -2,1 - - 29 16 - - N 1038,1 30 36 0,2
28.03.2020 08:00:00 0,4 -1,3 - - 37 20 55 30 N 1037,6 2,8 6 0,0
28.03.2020 07:00:00 1,5 -1,2 - - 28 15 - - N 1036,3 50 0 0,0
28.03.2020 06:00:00 2,4 -1,7 - - 21 11 - - N 1035,3 40 0 0,0
28.03.2020 05:00:00 1,7 -0,6 - - 22 12 - - N 1035,0 35 0 0,0
28.03.2020 04:00:00 3,0 -0,4 - - 15 8 - - NNW 1034,4 30 0 0,2
28.03.2020 03:00:00 3,3 0,8 - - 18 10 - - NNW 1034,3 25 0 0,0
28.03.2020 02:00:00 2,5 1,3 - - 18 10 - - NNW 1033,8 50 0 0,8
28.03.2020 01:00:00 2,8 1,2 - - 35 19 54 29 NW 1033,6 3,2 - 0,4
28.03.2020 00:00:00 5,1 0,8 - - 16 9 - - NNW 1032,8 26 0 0,0
27.03.2020 23:00:00 5,1 0,4 - - 13 7 - - NNW 1032,8 28 0 0,0
27.03.2020 22:00:00 4,7 -0,7 - - 21 11 - - NW 1032,3 35 0 0,0
27.03.2020 21:00:00 4,6 2,2 - - 24 13 - - NNW 1032,1 11 0 0,0
27.03.2020 20:00:00 5,8 2,0 - - 16 9 - - NW 1031,3 27 0 0,0
27.03.2020 19:00:00 6,6 3,3 - - 21 11 - - WNW 1030,7 30 42 0,0
27.03.2020 18:00:00 7,5 4,2 - - 24 13 - - WNW 1030,4 50 12 0,0
27.03.2020 17:00:00 7,7 4,1 - - 24 13 - - W 1030,2 29 6 0,0
27.03.2020 16:00:00 8,5 4,0 - - 24 13 - - WNW 1030,1 30 60 0,0
27.03.2020 15:00:00 8,1 2,8 - - 28 15 - - W 1030,1 40 42 0,0
27.03.2020 14:00:00 8,0 3,8 - - 29 16 - - W 1030,1 35 54 0,0
27.03.2020 13:00:00 8,2 4,5 - - 29 16 - - W 1029,9 30 36 0,0
27.03.2020 12:00:00 7,9 3,8 - - 28 15 - - W 1029,8 30 54 0,0
27.03.2020 11:00:00 7,6 5,4 - - 24 13 - - W 1029,3 30 42 0,0
27.03.2020 10:00:00 6,8 4,6 5,7 5,7 18 10 - - W 1029,1 35 12 0,4
27.03.2020 09:00:00 5,8 3,6 - - 28 15 - - W 1028,8 10 42 0,2
27.03.2020 08:00:00 5,2 4,2 - - 22 12 - - WSW 1028,3 35 0 0,0
27.03.2020 07:00:00 4,7 3,5 - - 21 11 - - WSW 1027,9 30 0 0,0
27.03.2020 06:00:00 4,8 3,4 - - 18 10 - - WSW 1027,8 30 0 0,0
27.03.2020 05:00:00 4,9 3,6 - - 24 13 - - W 1027,8 18 0 0,0
27.03.2020 04:00:00 4,6 3,3 - - 15 8 - - WSW 1027,9 45 0 1,0
27.03.2020 03:00:00 5,5 4,5 - - 22 12 - - WSW 1027,9 25 0 0,0
27.03.2020 02:00:00 - - - - - - - - - - - - -

tt = Température de l'air
td = dewpoint
tt -20cm = Température de l'air -20cm
tt -100cm = Température de l'air -100cm
ff = Vitesse du vent
fx = gusts
dd = Direction du vent
ppp = reduced air pressure
vv = visibility
sd = Ensoleillement
rr = Quantités de précipitations

stations d'obs. à proximité